Dyersburg, TN

1:17 PM CDT on April 26, 2017 (GMT -0500)
Dyersburg Municipal

Weather History for KDYR - February, 2015

Change the Weather History Date:

Wednesday, February 18, 2015

  Actual Average Record
Temperature  
Mean Temperature 22 °F -  
Max Temperature 30 °F 50 °F 73 °F (2000)
Min Temperature 15 °F 35 °F 15 °F (2006)
Degree Days  
Heating Degree Days 42    
Moisture  
Dew Point 3 °F    
Average Humidity 41    
Maximum Humidity 60    
Minimum Humidity 31    
Precipitation  
Precipitation 0.00 in - - ()
Sea Level Pressure  
Sea Level Pressure 30.23 in    
Wind  
Wind Speed 9 mph (NNW)    
Max Wind Speed 13 mph    
Max Gust Speed 18 mph    
Visibility 10 miles    
Events      
Averages and records for this station are not official NWS values.
T = Trace of Precipitation, MM = Missing Value Source: NWS Daily Summary

Daily Weather History Graph

Daily Weather History Graph

Search for Another Location

Airport or City:

Trip Planner

Search our weather history database for the weather conditions in past years. The results will help you decide how hot, cold, wet, or windy it might be!

Date:

Astronomy

Feb. 18, 2015 Rise Set
Actual Time 6:41 AM CST 5:41 PM CST
Civil Twilight 6:15 AM CST 6:07 PM CST
Nautical Twilight 5:45 AM CST 6:37 PM CST
Astronomical Twilight 5:16 AM CST 7:07 PM CST
Moon 6:11 AM CST (2/18) 5:41 PM CST (2/18)
Length of Visible Light 11h 52m
Length of Day
11h 00m
Waning Crescent, 0% of the Moon is Illuminated
Feb 18
Waning Crescent
Feb 18
New
Feb 25
First Quarter
Mar 5
Full
Mar 13
Last Quarter

Hourly Weather History & Observations

Time (CST) Temp. Windchill Dew Point Humidity Pressure Visibility Wind Dir Wind Speed Gust Speed Precip Events Conditions
12:15 AM 26.6 °F - 12.2 °F 55% 30.03 in 10.0 mi North - - N/A   Scattered Clouds
12:35 AM 28.4 °F - 14.0 °F 55% 30.02 in 10.0 mi North - - N/A   Overcast
12:55 AM 28.4 °F - 15.8 °F 59% 30.01 in 10.0 mi North - - N/A   Overcast
1:15 AM 28.4 °F - 15.8 °F 59% 30.01 in 10.0 mi North - - N/A   Overcast
1:35 AM 30.2 °F - 15.8 °F 55% 30.00 in 10.0 mi North - - N/A   Overcast
1:55 AM 30.2 °F - 17.6 °F 60% 30.00 in 9.0 mi North - - N/A   Overcast
2:15 AM 30.2 °F - 17.6 °F 60% 30.01 in 9.0 mi North - - N/A   Overcast
2:35 AM 30.2 °F - 17.6 °F 60% 30.01 in 6.0 mi North - - N/A   Overcast
2:55 AM 30.2 °F - 17.6 °F 60% 30.02 in 10.0 mi North - - N/A   Overcast
3:15 AM 30.2 °F - 15.8 °F 55% 30.02 in 10.0 mi North - - N/A   Overcast
3:35 AM 30.2 °F - 15.8 °F 55% 30.02 in 10.0 mi North - - N/A   Overcast
3:55 AM 28.4 °F - 15.8 °F 59% 30.04 in 10.0 mi North - - N/A   Overcast
4:15 AM 28.4 °F - 15.8 °F 59% 30.05 in 10.0 mi North - - N/A   Overcast
4:35 AM 28.4 °F - 15.8 °F 59% 30.05 in 10.0 mi North - - N/A   Mostly Cloudy
4:55 AM 28.4 °F - 14.0 °F 55% 30.06 in 10.0 mi North - - N/A   Overcast
5:15 AM 28.4 °F - 12.2 °F 51% 30.08 in 10.0 mi North - - N/A   Overcast
5:35 AM 28.4 °F - 10.4 °F 47% 30.09 in 10.0 mi North - - N/A   Overcast
5:55 AM 26.6 °F - 10.4 °F 51% 30.11 in 4.0 mi North - - N/A   Overcast
6:15 AM 26.6 °F - 10.4 °F 51% 30.12 in 4.0 mi North - - N/A   Overcast
6:35 AM 23.0 °F - 6.8 °F 50% 30.14 in 7.0 mi North - - N/A   Overcast
6:55 AM 23.0 °F - 6.8 °F 50% 30.15 in 10.0 mi North - - N/A   Overcast
7:15 AM 23.0 °F - 5.0 °F 46% 30.16 in 10.0 mi North - - N/A   Mostly Cloudy
7:35 AM 23.0 °F - 3.2 °F 43% 30.18 in 10.0 mi North - - N/A   Scattered Clouds
7:55 AM 23.0 °F - 1.4 °F 39% 30.19 in 10.0 mi North - - N/A   Clear
8:15 AM 23.0 °F - 1.4 °F 39% 30.21 in 10.0 mi North - - N/A   Clear
8:35 AM 24.8 °F - 1.4 °F 36% 30.22 in 10.0 mi North - - N/A   Clear
8:55 AM 24.8 °F - 1.4 °F 36% 30.22 in 10.0 mi North - - N/A   Clear
9:15 AM 24.8 °F - 3.2 °F 40% 30.23 in 10.0 mi North - - N/A   Clear
9:35 AM 24.8 °F - 3.2 °F 40% 30.24 in 10.0 mi North - - N/A   Clear
9:55 AM 24.8 °F - 3.2 °F 40% 30.25 in 10.0 mi North - - N/A   Clear
10:15 AM 24.8 °F - 3.2 °F 40% 30.25 in 10.0 mi North - - N/A   Partly Cloudy
10:35 AM 24.8 °F - 1.4 °F 36% 30.26 in 10.0 mi North - - N/A   Partly Cloudy
10:55 AM 24.8 °F - 1.4 °F 36% 30.27 in 10.0 mi North - - N/A   Clear
11:15 AM 24.8 °F - 1.4 °F 36% 30.27 in 10.0 mi North - - N/A   Clear
11:35 AM 26.6 °F - 1.4 °F 34% 30.27 in 10.0 mi North - - N/A   Partly Cloudy
11:55 AM 26.6 °F - 1.4 °F 34% 30.28 in 10.0 mi North - - N/A   Mostly Cloudy
12:15 PM 24.8 °F - 1.4 °F 36% 30.28 in 10.0 mi North - - N/A   Mostly Cloudy
12:35 PM 24.8 °F - 1.4 °F 36% 30.28 in 10.0 mi North - - N/A   Mostly Cloudy
12:55 PM 26.6 °F - 3.2 °F 37% 30.28 in 10.0 mi North - - N/A   Mostly Cloudy
1:15 PM 26.6 °F - 1.4 °F 34% 30.27 in 10.0 mi North - - N/A   Mostly Cloudy
1:35 PM 26.6 °F - 1.4 °F 34% 30.27 in 10.0 mi North - - N/A   Scattered Clouds
1:55 PM 24.8 °F - -0.4 °F 34% 30.27 in 10.0 mi North - - N/A   Scattered Clouds
2:15 PM 24.8 °F - -0.4 °F 34% 30.27 in 10.0 mi North - - N/A   Scattered Clouds
2:35 PM 24.8 °F - 1.4 °F 36% 30.28 in 10.0 mi North - - N/A   Mostly Cloudy
2:55 PM 24.8 °F - -0.4 °F 34% 30.28 in 10.0 mi North - - N/A   Mostly Cloudy
3:15 PM 24.8 °F - -0.4 °F 34% 30.28 in 10.0 mi North - - N/A   Partly Cloudy
3:35 PM 24.8 °F - -0.4 °F 34% 30.28 in 10.0 mi North - - N/A   Clear
3:55 PM 24.8 °F 15.3 °F -0.4 °F 34% 30.28 in 10.0 mi NW 9.2 mph 16.1 mph N/A   Partly Cloudy
4:15 PM 24.8 °F 13.4 °F -0.4 °F 34% 30.28 in 10.0 mi NW 12.7 mph - N/A   Clear
4:35 PM 24.8 °F 14.6 °F -0.4 °F 34% 30.28 in 10.0 mi WNW 10.4 mph - N/A   Clear
4:55 PM 24.8 °F 14.6 °F -2.2 °F 31% 30.28 in 10.0 mi NW 10.4 mph - N/A   Clear
5:15 PM 24.8 °F 17.9 °F -2.2 °F 31% 30.29 in 10.0 mi NW 5.8 mph - N/A   Clear
5:35 PM 24.8 °F 16.1 °F -2.2 °F 31% 30.30 in 10.0 mi WNW 8.1 mph - N/A   Clear
5:55 PM 24.8 °F 16.9 °F -2.2 °F 31% 30.30 in 10.0 mi WNW 6.9 mph 16.1 mph N/A   Clear
6:15 PM 23.0 °F 15.8 °F -2.2 °F 33% 30.31 in 10.0 mi NW 5.8 mph - N/A   Clear
6:35 PM 23.0 °F 13.9 °F -2.2 °F 33% 30.31 in 10.0 mi NNW 8.1 mph - N/A   Clear
6:55 PM 23.0 °F 14.7 °F -4.0 °F 31% 30.32 in 10.0 mi NNW 6.9 mph - N/A   Clear
7:15 PM 21.2 °F 13.6 °F -4.0 °F 33% 30.33 in 10.0 mi NNW 5.8 mph - N/A   Clear
7:35 PM 21.2 °F 13.6 °F -2.2 °F 36% 30.34 in 10.0 mi NNW 5.8 mph - N/A   Clear
7:55 PM 21.2 °F 11.7 °F -4.0 °F 33% 30.35 in 10.0 mi NNW 8.1 mph - N/A   Clear
8:15 PM 21.2 °F 11.7 °F -4.0 °F 33% 30.36 in 10.0 mi NNW 8.1 mph - N/A   Clear
8:35 PM 21.2 °F 11.7 °F -4.0 °F 33% 30.37 in 10.0 mi North 8.1 mph - N/A   Clear
8:55 PM 19.4 °F 8.6 °F -4.0 °F 36% 30.38 in 10.0 mi North 9.2 mph 16.1 mph N/A   Clear
9:15 PM 19.4 °F 7.9 °F -5.8 °F 33% 30.39 in 10.0 mi North 10.4 mph 18.4 mph N/A   Clear
9:35 PM 19.4 °F 7.9 °F -5.8 °F 33% 30.40 in 10.0 mi North 10.4 mph - N/A   Clear
9:55 PM 17.6 °F 6.4 °F -5.8 °F 35% 30.41 in 10.0 mi North 9.2 mph - N/A   Clear
10:15 PM 17.6 °F 5.0 °F -7.6 °F 32% 30.42 in 10.0 mi North 11.5 mph - N/A   Clear
10:35 PM 17.6 °F 6.4 °F -7.6 °F 32% 30.42 in 10.0 mi North 9.2 mph - N/A   Clear
10:55 PM 15.8 °F 2.1 °F -7.6 °F 35% 30.42 in 10.0 mi North 12.7 mph 17.3 mph N/A   Clear
11:15 PM 15.8 °F 2.7 °F -9.4 °F 32% 30.43 in 10.0 mi North 11.5 mph - N/A   Clear
11:35 PM 15.8 °F 5.1 °F -9.4 °F 32% 30.43 in 10.0 mi North 8.1 mph - N/A   Clear
11:55 PM 15.8 °F 5.1 °F -9.4 °F 32% 30.43 in 10.0 mi North 8.1 mph - N/A   Clear